Simultaneous Nadir Overpasses (SNOs) Predictions

Prediction of SNOs between LANDSAT-8 and NPP Satellite Orbit:

Table of predicted SNOs for the next 14.0 days since TLE Epoch: 8/30/2014
Index Date (LANDSAT-8) Time (LANDSAT-8) Lat,Lon (LANDSAT-8) SZA (LANDSAT-8 ) Date (NPP) Time (NPP) Lat,Lon (NPP) SZA (NPP ) Distance(km) Time Diff (sec)
1 08/31/2014 09:45:09 70.74, 31.08 62.06 08/31/2014 09:44:45 70.71, 31.07 62.03 3.06 24
2 08/31/2014 10:34:39 -70.62,-161.45 118.04 08/31/2014 10:35:27 -70.64,-161.49 118.03 1.90 48
3 09/03/2014 01:12:14 -70.81, -20.58 116.92 09/03/2014 01:11:01 -70.84, -20.69 116.88 5.57 73
4 09/03/2014 02:01:41 70.71, 146.91 63.00 09/03/2014 02:01:45 70.71, 146.83 63.00 2.91 4
5 09/03/2014 02:51:12 -70.55, -45.70 117.15 09/03/2014 02:52:25 -70.53, -45.55 117.18 5.79 73
6 09/05/2014 17:28:48 -70.74, 95.19 116.00 09/05/2014 17:27:59 -70.74, 95.24 116.00 2.13 49
7 09/05/2014 18:18:15 70.64, -97.32 63.92 09/05/2014 18:18:44 70.66, -97.32 63.94 2.10 29
8 09/08/2014 08:55:39 71.55, 44.71 65.79 09/08/2014 08:54:32 71.60, 42.19 65.88 88.73 67
9 09/08/2014 09:45:21 -70.75,-148.95 115.00 09/08/2014 09:44:58 -70.74,-149.00 115.00 2.04 23
10 09/08/2014 10:34:48 70.64, 18.54 64.92 09/08/2014 10:35:42 70.61, 18.52 64.89 3.34 54
11 09/11/2014 01:12:27 70.81, 159.37 66.07 09/11/2014 01:11:15 70.78, 159.38 66.04 3.07 72
12 09/11/2014 02:01:57 -70.71, -33.14 114.02 09/11/2014 02:01:57 -70.70, -33.16 114.03 1.61 0
13 09/11/2014 02:51:27 70.44, 134.10
